Flag for U.S.A. Weather past 2 weeks in Vallejo, California, U.S.A.

Now
68 °F

Sunny.


Feels Like: 68 °F
Forecast: 40 / 66 °F
Wind: 7 mph from Southeast

Location: Napa County Airport

Current Time: Mar 5, 2015 at 3:15:22 PM

Latest Report: Mar 5, 2015 at 2:54 PM


Visibility: 10 mi

Pressure: 30.26 "Hg

Humidity: 36%

Dew point: 40 °F

Location of VallejoLocation

Historic Weather in Vallejo — Graph

°F

Vallejo temperature yesterday

Maximum temperature yesterday: 65 °F (at 3:54 PM)
Minimum temperature yesterday: 34 °F (at 5:54 AM)
Average temperature yesterday: 48 °F

Past Weeks' High & Low Weather Summary

 TemperatureHumidityPressure
High70 °F (Feb 26, 2:54 PM)100% (Feb 19, 4:54 AM)30.34 "Hg (Feb 19, 4:54 AM)
Low30 °F (Feb 24, 3:54 AM)21% (Feb 23, 6:54 AM)29.68 "Hg (Feb 27, 5:54 PM)
Average50 °F74%29.99 "Hg
* Reported Feb 18 1:54 PM — Mar 5 1:54 PM, Vallejo, Weather by CustomWeather, © 2015

Note: Actual official high and low records may vary slightly from our data, if they occured in-between our weather recording intervals... More about our weather records

Advertising

Vallejo weather history for previous 24 hours

 ConditionsComfort  
Time TempWeatherWind HumidityBarometerVisibility
1:54 PM
Thu, Mar 5
67 °FSunny.9 mph37%30.27 "Hg10 mi
12:54 PM66 °FSunny.9 mph39%30.29 "Hg10 mi
11:54 AM65 °FSunny.9 mph44%30.31 "Hg10 mi
10:54 AM61 °FSunny.9 mph52%30.32 "Hg10 mi
9:54 AM58 °FSunny.9 mph54%30.32 "Hg10 mi
8:54 AM52 °FSunny.No wind69%30.32 "Hg10 mi
7:54 AM43 °FSunny.No wind82%30.31 "Hg10 mi
6:54 AM38 °FSunny.3 mph90%30.28 "Hg10 mi
5:54 AM39 °FClear.6 mph86%30.26 "Hg10 mi
4:54 AM38 °FClear.5 mph90%30.24 "Hg10 mi
3:54 AM41 °FClear.7 mph82%30.22 "Hg10 mi
2:54 AM40 °FClear.8 mph86%30.22 "Hg10 mi
1:54 AM42 °FClear.5 mph79%30.22 "Hg10 mi
12:54 AM38 °FClear.3 mph86%30.21 "Hg10 mi
11:54 PM
Wed, Mar 4
41 °FClear.No wind80%30.20 "Hg10 mi
10:54 PM40 °FClear.No wind83%30.20 "Hg10 mi
9:54 PM41 °FClear.3 mph80%30.19 "Hg10 mi
8:54 PM44 °FClear.6 mph73%30.17 "Hg10 mi
7:54 PM50 °FClear.3 mph61%30.15 "Hg10 mi
6:54 PM54 °FClear.5 mph51%30.14 "Hg10 mi
5:54 PM57 °FSunny.3 mph51%30.12 "Hg10 mi
4:54 PM62 °FSunny.10 mph46%30.11 "Hg10 mi
3:54 PM65 °FSunny.6 mph42%30.10 "Hg10 mi
Weather by CustomWeather, © 2015

See weather overviewHow to use our weather pages